New Philadelphia, OH

3:51 PM EST on December 06, 2016 (GMT -0500)
Clever

Weather History for KPHD - December, 2013

Change the Weather History Date:

Thursday, December 19, 2013

  Actual Average Record
Temperature  
Mean Temperature 40 °F 31 °F  
Max Temperature 49 °F 40 °F 63 °F (1967)
Min Temperature 30 °F 23 °F -9 °F (1989)
Degree Days  
Heating Degree Days 25 34  
Month to date heating degree days 645 586  
Since 1 July heating degree days 1881 1744  
Cooling Degree Days 0 0  
Month to date cooling degree days 0 0  
Year to date cooling degree days 755 697  
Moisture  
Dew Point 23 °F    
Average Humidity 61    
Maximum Humidity 76    
Minimum Humidity 45    
Precipitation  
Precipitation 0.00 in 0.08 in 1.10 in (2008)
Month to date precipitation 1.40 1.66  
Year to date precipitation 32.64 37.89  
Sea Level Pressure  
Sea Level Pressure 30.07 in    
Wind  
Wind Speed 4 mph (SSE)    
Max Wind Speed 13 mph    
Max Gust Speed 18 mph    
Visibility 10 miles    
Events      
T = Trace of Precipitation, MM = Missing Value Source: NWS Daily Summary

Daily Weather History Graph

Daily Weather History Graph

Search for Another Location

Airport or City:

Trip Planner

Search our weather history database for the weather conditions in past years. The results will help you decide how hot, cold, wet, or windy it might be!

Date:

Astronomy

Dec. 19, 2013 Rise Set
Actual Time 7:44 AM EST 5:01 PM EST
Civil Twilight 7:13 AM EST 5:32 PM EST
Nautical Twilight 6:39 AM EST 6:06 PM EST
Astronomical Twilight 6:06 AM EST 6:39 PM EST
Moon 7:26 PM EST (12/19) 9:02 AM EST (12/19)
Length of Visible Light 10h 18m
Length of Day
9h 16m
Waning Gibbous, 95% of the Moon is Illuminated
Dec 19
Waning Gibbous
Dec 25
Last Quarter
Jan 1
New
Jan 7
First Quarter
Jan 15
Full

Hourly Weather History & Observations

Time (EST) Temp. Windchill Dew Point Humidity Pressure Visibility Wind Dir Wind Speed Gust Speed Precip Events Conditions
12:53 AM 33.1 °F 27.7 °F 16.0 °F 50% 30.07 in 10.0 mi Variable 5.8 mph - N/A   Clear
1:53 AM 33.1 °F 26.9 °F 16.0 °F 50% 30.06 in 10.0 mi Variable 6.9 mph - N/A   Clear
2:53 AM 33.1 °F 28.7 °F 15.1 °F 48% 30.06 in 10.0 mi SSW 4.6 mph - N/A   Clear
3:53 AM 32.0 °F - 15.1 °F 50% 30.07 in 10.0 mi Calm Calm - N/A   Clear
4:53 AM 33.1 °F 26.9 °F 15.1 °F 48% 30.07 in 10.0 mi Variable 6.9 mph - N/A   Clear
5:53 AM 32.0 °F 28.7 °F 16.0 °F 52% 30.08 in 10.0 mi South 3.5 mph - N/A   Clear
6:53 AM 30.9 °F 26.2 °F 16.0 °F 54% 30.09 in 10.0 mi South 4.6 mph - N/A   Clear
7:53 AM 30.9 °F 26.2 °F 17.1 °F 57% 30.10 in 10.0 mi SE 4.6 mph - N/A   Clear
8:53 AM 34.0 °F 28.8 °F 18.0 °F 52% 30.10 in 10.0 mi SE 5.8 mph - N/A   Clear
9:53 AM 37.9 °F 35.5 °F 19.0 °F 47% 30.12 in 10.0 mi SE 3.5 mph - N/A   Clear
10:53 AM 41.0 °F 37.1 °F 21.0 °F 45% 30.12 in 10.0 mi SSW 5.8 mph - N/A   Clear
11:53 AM 44.1 °F 41.5 °F 24.1 °F 45% 30.10 in 10.0 mi Variable 4.6 mph - N/A   Clear
12:53 PM 46.0 °F 43.1 °F 26.1 °F 46% 30.09 in 10.0 mi SSW 5.8 mph - N/A   Clear
1:53 PM 46.9 °F - 28.0 °F 48% 30.07 in 10.0 mi WSW 5.8 mph - N/A   Clear
2:53 PM 48.0 °F - 28.9 °F 48% 30.07 in 10.0 mi SSW 6.9 mph - N/A   Clear
3:53 PM 48.9 °F - 30.0 °F 48% 30.07 in 10.0 mi SW 3.5 mph - N/A   Clear
4:53 PM 44.1 °F 42.5 °F 30.0 °F 58% 30.06 in 10.0 mi SE 3.5 mph - N/A   Clear
5:53 PM 39.0 °F - 30.0 °F 70% 30.07 in 10.0 mi Calm Calm - N/A   Clear
6:53 PM 37.9 °F - 30.0 °F 73% 30.06 in 10.0 mi Calm Calm - N/A   Clear
7:53 PM 37.9 °F 34.4 °F 30.9 °F 76% 30.06 in 10.0 mi ESE 4.6 mph - N/A   Mostly Cloudy
8:53 PM 37.9 °F - 30.9 °F 76% 30.06 in 10.0 mi Calm Calm - N/A   Mostly Cloudy
9:53 PM 37.9 °F 34.4 °F 30.0 °F 73% 30.04 in 10.0 mi SE 4.6 mph - N/A   Clear
10:53 PM 37.0 °F 33.3 °F 30.0 °F 76% 30.03 in 10.0 mi ESE 4.6 mph - N/A   Clear
11:53 PM 37.0 °F 33.3 °F 28.9 °F 73% 30.02 in 10.0 mi SE 4.6 mph - N/A   Clear